Time,TemperatureF,DewpointF,PressureIn,WindDirection,WindDirectionDegrees,WindSpeedMPH,WindSpeedGustMPH,Humidity,HourlyPrecipIn,Conditions,Clouds,dailyrainin,SoftwareType,DateUTC
2013-04-18 00:00:00,72.0,63.8,29.70,SE,135,0.0,0.7,70,0.00,,,0.00,fowsr,2013-04-18 04:00:00,
2013-04-18 00:05:00,72.0,63.8,29.70,SE,135,0.0,0.7,70,0.00,,,0.00,fowsr,2013-04-18 04:05:00,
2013-04-18 00:10:00,71.8,63.7,29.70,East,90,1.6,3.8,70,0.00,,,0.00,fowsr,2013-04-18 04:10:00,
2013-04-18 00:15:00,71.6,63.5,29.69,ESE,112,1.6,4.5,70,0.00,,,0.00,fowsr,2013-04-18 04:15:00,
2013-04-18 00:20:00,71.6,63.2,29.69,NE,45,0.7,3.1,69,0.00,,,0.00,fowsr,2013-04-18 04:20:00,
2013-04-18 00:25:00,71.4,63.0,29.69,SE,135,0.0,0.7,69,0.00,,,0.00,fowsr,2013-04-18 04:25:00,
2013-04-18 00:30:00,71.2,62.8,29.69,East,90,0.7,1.6,69,0.00,,,0.00,fowsr,2013-04-18 04:30:00,
2013-04-18 00:35:00,71.1,62.7,29.70,SE,135,0.7,2.2,69,0.00,,,0.00,fowsr,2013-04-18 04:35:00,
2013-04-18 00:40:00,70.9,62.2,29.70,South,180,0.0,0.7,68,0.00,,,0.00,fowsr,2013-04-18 04:40:00,
2013-04-18 00:45:00,70.7,61.7,29.70,SE,135,0.7,2.2,67,0.00,,,0.00,fowsr,2013-04-18 04:45:00,
2013-04-18 00:50:00,70.5,61.5,29.69,SE,135,1.6,3.1,67,0.00,,,0.00,fowsr,2013-04-18 04:50:00,
2013-04-18 00:55:00,70.3,61.4,29.70,SE,135,0.7,2.2,67,0.00,,,0.00,fowsr,2013-04-18 04:55:00,
2013-04-18 01:00:00,70.2,61.2,29.70,SE,135,0.0,0.0,67,0.00,,,0.00,fowsr,2013-04-18 05:00:00,
2013-04-18 01:05:00,70.0,61.0,29.70,SW,225,0.0,0.7,67,0.00,,,0.00,fowsr,2013-04-18 05:05:00,
2013-04-18 01:10:00,69.8,60.8,29.69,SE,135,0.0,0.7,67,0.00,,,0.00,fowsr,2013-04-18 05:10:00,
2013-04-18 01:15:00,69.4,60.8,29.69,SE,135,1.6,2.2,68,0.00,,,0.00,fowsr,2013-04-18 05:15:00,
2013-04-18 01:20:00,69.3,61.0,29.69,NE,45,0.0,0.7,69,0.00,,,0.00,fowsr,2013-04-18 05:20:00,
2013-04-18 01:25:00,69.1,60.8,29.69,SE,135,0.0,0.7,69,0.00,,,0.00,fowsr,2013-04-18 05:25:00,
2013-04-18 01:30:00,68.9,60.6,29.69,SE,135,0.0,0.7,69,0.00,,,0.00,fowsr,2013-04-18 05:30:00,
2013-04-18 01:35:00,68.7,60.8,29.69,North,0,0.0,0.0,70,0.00,,,0.00,fowsr,2013-04-18 05:35:00,
2013-04-18 01:40:00,68.5,60.6,29.69,SE,135,0.0,0.0,70,0.00,,,0.00,fowsr,2013-04-18 05:40:00,
2013-04-18 01:45:00,68.2,60.3,29.69,East,90,0.0,0.7,70,0.00,,,0.00,fowsr,2013-04-18 05:45:00,
2013-04-18 01:50:00,68.0,60.1,29.69,SE,135,0.0,0.7,70,0.00,,,0.00,fowsr,2013-04-18 05:50:00,
2013-04-18 01:55:00,67.6,60.4,29.69,SE,135,0.0,0.0,72,0.00,,,0.00,fowsr,2013-04-18 05:55:00,
2013-04-18 02:00:00,67.5,60.2,29.68,South,180,0.0,0.0,72,0.00,,,0.00,fowsr,2013-04-18 06:00:00,
2013-04-18 02:05:00,67.5,60.2,29.69,SE,135,0.0,0.0,72,0.00,,,0.00,fowsr,2013-04-18 06:05:00,
2013-04-18 02:10:00,67.1,59.8,29.68,SE,135,0.0,0.7,72,0.00,,,0.00,fowsr,2013-04-18 06:10:00,
2013-04-18 02:15:00,66.9,59.7,29.69,South,180,0.0,0.7,72,0.00,,,0.00,fowsr,2013-04-18 06:15:00,
2013-04-18 02:20:00,66.7,59.8,29.69,South,180,0.0,0.0,73,0.00,,,0.00,fowsr,2013-04-18 06:20:00,
2013-04-18 02:25:00,66.6,59.6,29.68,South,180,0.0,0.0,73,0.00,,,0.00,fowsr,2013-04-18 06:25:00,
2013-04-18 02:30:00,66.2,59.3,29.68,NE,45,0.0,0.0,73,0.00,,,0.00,fowsr,2013-04-18 06:30:00,
2013-04-18 02:35:00,65.8,59.5,29.68,NE,45,0.0,0.7,75,0.00,,,0.00,fowsr,2013-04-18 06:35:00,
2013-04-18 02:40:00,65.7,59.3,29.68,NE,45,0.0,0.0,75,0.00,,,0.00,fowsr,2013-04-18 06:40:00,
2013-04-18 02:45:00,65.5,59.5,29.68,NE,45,0.0,0.0,76,0.00,,,0.00,fowsr,2013-04-18 06:45:00,
2013-04-18 02:50:00,65.3,59.3,29.68,East,90,0.7,2.2,76,0.00,,,0.00,fowsr,2013-04-18 06:50:00,
2013-04-18 02:55:00,65.3,59.6,29.68,SE,135,0.0,0.0,77,0.00,,,0.00,fowsr,2013-04-18 06:55:00,
2013-04-18 03:05:00,64.9,59.2,29.68,South,180,0.0,0.0,77,0.00,,,0.00,fowsr,2013-04-18 07:05:00,
2013-04-18 03:10:00,64.8,59.3,29.68,SW,225,0.0,0.0,78,0.00,,,0.00,fowsr,2013-04-18 07:10:00,
2013-04-18 03:15:00,64.6,59.1,29.68,East,90,0.0,0.7,78,0.00,,,0.00,fowsr,2013-04-18 07:15:00,
2013-04-18 03:20:00,64.6,59.4,29.68,South,180,0.0,0.0,79,0.00,,,0.00,fowsr,2013-04-18 07:20:00,
2013-04-18 03:25:00,64.4,59.2,29.68,SE,135,0.0,0.7,79,0.00,,,0.00,fowsr,2013-04-18 07:25:00,
2013-04-18 03:30:00,64.2,59.1,29.68,SE,135,0.0,0.0,79,0.00,,,0.00,fowsr,2013-04-18 07:30:00,
2013-04-18 03:35:00,64.0,59.2,29.68,SE,135,0.0,0.0,80,0.00,,,0.00,fowsr,2013-04-18 07:35:00,
2013-04-18 03:40:00,63.9,59.0,29.69,SE,135,0.0,0.0,80,0.00,,,0.00,fowsr,2013-04-18 07:40:00,
2013-04-18 03:45:00,63.7,58.8,29.69,SE,135,0.0,0.0,80,0.00,,,0.00,fowsr,2013-04-18 07:45:00,
2013-04-18 03:50:00,63.3,58.5,29.68,SE,135,0.0,0.0,80,0.00,,,0.00,fowsr,2013-04-18 07:50:00,
2013-04-18 03:55:00,63.1,58.6,29.69,SE,135,0.0,0.0,81,0.00,,,0.00,fowsr,2013-04-18 07:55:00,
2013-04-18 04:00:00,63.0,58.4,29.69,SE,135,0.0,0.0,81,0.00,,,0.00,fowsr,2013-04-18 08:00:00,
2013-04-18 04:05:00,62.8,58.2,29.68,SE,135,0.0,0.0,81,0.00,,,0.00,fowsr,2013-04-18 08:05:00,
2013-04-18 04:10:00,62.6,58.3,29.68,SE,135,0.0,0.0,82,0.00,,,0.00,fowsr,2013-04-18 08:10:00,
2013-04-18 04:15:00,62.6,58.3,29.68,SE,135,0.0,0.0,82,0.00,,,0.00,fowsr,2013-04-18 08:15:00,
2013-04-18 04:20:00,62.4,58.6,29.68,SE,135,0.0,0.0,84,0.00,,,0.00,fowsr,2013-04-18 08:20:00,
2013-04-18 04:25:00,62.2,58.5,29.68,SE,135,0.0,0.0,84,0.00,,,0.00,fowsr,2013-04-18 08:25:00,
2013-04-18 04:30:00,62.1,58.5,29.69,SE,135,0.0,0.0,85,0.00,,,0.00,fowsr,2013-04-18 08:30:00,
2013-04-18 04:35:00,61.9,58.4,29.69,SE,135,0.0,0.0,85,0.00,,,0.00,fowsr,2013-04-18 08:35:00,
2013-04-18 04:40:00,61.9,58.6,29.69,SE,135,0.0,0.0,86,0.00,,,0.00,fowsr,2013-04-18 08:40:00,
2013-04-18 04:45:00,61.7,58.4,29.69,SE,135,0.0,0.0,86,0.00,,,0.00,fowsr,2013-04-18 08:45:00,
2013-04-18 04:50:00,61.5,58.3,29.69,SE,135,0.0,0.0,86,0.00,,,0.00,fowsr,2013-04-18 08:50:00,
2013-04-18 04:55:00,61.5,58.5,29.69,SE,135,0.0,0.0,87,0.00,,,0.00,fowsr,2013-04-18 08:55:00,
2013-04-18 05:00:00,61.3,58.3,29.69,SE,135,0.0,0.0,87,0.00,,,0.00,fowsr,2013-04-18 09:00:00,
2013-04-18 05:05:00,61.3,58.6,29.69,SE,135,0.0,0.0,88,0.00,,,0.00,fowsr,2013-04-18 09:05:00,
2013-04-18 05:10:00,61.3,58.6,29.69,East,90,0.0,0.0,88,0.00,,,0.00,fowsr,2013-04-18 09:10:00,
2013-04-18 05:15:00,61.5,58.8,29.69,East,90,0.0,0.0,88,0.00,,,0.00,fowsr,2013-04-18 09:15:00,
2013-04-18 05:20:00,61.3,58.8,29.69,East,90,0.0,0.0,89,0.00,,,0.00,fowsr,2013-04-18 09:20:00,
2013-04-18 05:25:00,61.3,58.8,29.69,East,90,0.0,0.0,89,0.00,,,0.00,fowsr,2013-04-18 09:25:00,
2013-04-18 05:30:00,61.3,58.8,29.69,East,90,0.0,0.0,89,0.00,,,0.00,fowsr,2013-04-18 09:30:00,
2013-04-18 05:35:00,61.3,58.8,29.70,East,90,0.0,0.0,89,0.00,,,0.00,fowsr,2013-04-18 09:35:00,
2013-04-18 05:40:00,61.2,58.6,29.70,East,90,0.0,0.0,89,0.00,,,0.00,fowsr,2013-04-18 09:40:00,
2013-04-18 05:45:00,61.2,58.6,29.70,East,90,0.0,0.0,89,0.00,,,0.00,fowsr,2013-04-18 09:45:00,
2013-04-18 05:50:00,61.0,58.5,29.69,East,90,0.0,0.0,89,0.00,,,0.00,fowsr,2013-04-18 09:50:00,
2013-04-18 05:55:00,61.0,58.7,29.70,East,90,0.0,0.0,90,0.00,,,0.00,fowsr,2013-04-18 09:55:00,
2013-04-18 06:00:00,60.8,58.5,29.70,East,90,0.0,0.0,90,0.00,,,0.00,fowsr,2013-04-18 10:00:00,
2013-04-18 06:05:00,60.8,58.5,29.70,East,90,0.0,0.0,90,0.00,,,0.00,fowsr,2013-04-18 10:05:00,
2013-04-18 06:10:00,60.8,58.5,29.70,East,90,0.0,0.0,90,0.00,,,0.00,fowsr,2013-04-18 10:10:00,
2013-04-18 06:15:00,60.6,58.6,29.71,East,90,0.0,0.0,91,0.00,,,0.00,fowsr,2013-04-18 10:15:00,
2013-04-18 06:20:00,60.6,58.8,29.70,East,90,0.0,0.0,92,0.00,,,0.00,fowsr,2013-04-18 10:20:00,
2013-04-18 06:25:00,60.4,58.6,29.71,East,90,0.0,0.0,92,0.00,,,0.00,fowsr,2013-04-18 10:25:00,
2013-04-18 06:30:00,60.4,58.6,29.71,East,90,0.0,0.0,92,0.00,,,0.00,fowsr,2013-04-18 10:30:00,
2013-04-18 06:35:00,60.3,58.5,29.71,East,90,0.0,0.0,92,0.00,,,0.00,fowsr,2013-04-18 10:35:00,
2013-04-18 06:40:00,60.3,58.5,29.71,East,90,0.0,0.0,92,0.00,,,0.00,fowsr,2013-04-18 10:40:00,
2013-04-18 06:45:00,60.3,58.7,29.72,East,90,0.0,0.0,93,0.00,,,0.00,fowsr,2013-04-18 10:45:00,
2013-04-18 06:50:00,60.3,58.7,29.72,East,90,0.0,0.0,93,0.00,,,0.00,fowsr,2013-04-18 10:50:00,
2013-04-18 06:55:00,60.3,58.7,29.72,East,90,0.0,0.0,93,0.00,,,0.00,fowsr,2013-04-18 10:55:00,
2013-04-18 07:00:00,60.3,58.7,29.72,East,90,0.0,0.0,93,0.00,,,0.00,fowsr,2013-04-18 11:00:00,
2013-04-18 07:05:00,60.3,58.9,29.72,East,90,0.0,0.0,94,0.00,,,0.00,fowsr,2013-04-18 11:05:00,
2013-04-18 07:10:00,60.3,58.9,29.72,East,90,0.0,0.0,94,0.00,,,0.00,fowsr,2013-04-18 11:10:00,
2013-04-18 07:15:00,60.4,59.1,29.72,East,90,0.0,0.0,94,0.00,,,0.00,fowsr,2013-04-18 11:15:00,
2013-04-18 07:20:00,60.6,59.3,29.72,North,0,0.0,0.0,94,0.00,,,0.00,fowsr,2013-04-18 11:20:00,
2013-04-18 07:25:00,60.8,59.2,29.72,NE,45,0.0,0.7,93,0.00,,,0.00,fowsr,2013-04-18 11:25:00,
2013-04-18 07:30:00,61.0,59.6,29.72,SE,135,0.0,0.0,94,0.00,,,0.00,fowsr,2013-04-18 11:30:00,
2013-04-18 07:35:00,61.2,59.8,29.72,SE,135,0.0,0.0,94,0.00,,,0.00,fowsr,2013-04-18 11:35:00,
2013-04-18 07:40:00,61.3,60.0,29.72,SE,135,0.0,0.7,94,0.00,,,0.00,fowsr,2013-04-18 11:40:00,
2013-04-18 07:45:00,61.5,60.2,29.72,SE,135,0.0,0.0,94,0.00,,,0.00,fowsr,2013-04-18 11:45:00,
2013-04-18 07:50:00,61.9,60.5,29.73,East,90,0.0,0.7,94,0.00,,,0.00,fowsr,2013-04-18 11:50:00,
2013-04-18 07:55:00,62.2,61.1,29.73,East,90,0.0,0.7,95,0.00,,,0.00,fowsr,2013-04-18 11:55:00,
2013-04-18 08:00:00,62.6,61.2,29.73,South,180,0.0,0.7,94,0.00,,,0.00,fowsr,2013-04-18 12:00:00,
2013-04-18 08:05:00,63.0,61.6,29.73,NW,315,0.0,0.7,94,0.00,,,0.00,fowsr,2013-04-18 12:05:00,
2013-04-18 08:10:00,63.9,62.5,29.73,East,90,0.0,1.6,94,0.00,,,0.00,fowsr,2013-04-18 12:10:00,
2013-04-18 08:15:00,64.2,62.9,29.73,SE,135,0.7,2.2,94,0.00,,,0.00,fowsr,2013-04-18 12:15:00,
2013-04-18 08:20:00,64.8,63.4,29.73,NE,45,0.0,0.7,94,0.00,,,0.00,fowsr,2013-04-18 12:20:00,
2013-04-18 08:25:00,65.3,63.9,29.74,SSE,157,0.7,3.1,94,0.00,,,0.00,fowsr,2013-04-18 12:25:00,
2013-04-18 08:30:00,65.8,64.2,29.74,East,90,0.0,0.0,93,0.00,,,0.00,fowsr,2013-04-18 12:30:00,
2013-04-18 08:35:00,66.2,64.3,29.74,East,90,0.7,2.2,92,0.00,,,0.00,fowsr,2013-04-18 12:35:00,
2013-04-18 08:40:00,66.6,64.4,29.74,East,90,0.0,1.6,91,0.00,,,0.00,fowsr,2013-04-18 12:40:00,
2013-04-18 08:45:00,66.9,64.8,29.74,SE,135,0.7,1.6,91,0.00,,,0.00,fowsr,2013-04-18 12:45:00,
2013-04-18 08:50:00,67.5,64.8,29.74,SE,135,0.7,2.2,89,0.00,,,0.00,fowsr,2013-04-18 12:50:00,
2013-04-18 08:55:00,68.0,64.9,29.74,NW,315,0.0,1.6,87,0.00,,,0.00,fowsr,2013-04-18 12:55:00,
2013-04-18 09:00:00,68.4,65.0,29.74,NNE,22,0.7,1.6,86,0.00,,,0.00,fowsr,2013-04-18 13:00:00,
2013-04-18 09:05:00,68.7,65.0,29.75,SW,225,0.7,1.6,85,0.00,,,0.00,fowsr,2013-04-18 13:05:00,
2013-04-18 09:10:00,68.9,65.0,29.75,East,90,0.0,1.6,84,0.00,,,0.00,fowsr,2013-04-18 13:10:00,
2013-04-18 09:15:00,68.9,64.7,29.75,NE,45,0.7,1.6,83,0.00,,,0.00,fowsr,2013-04-18 13:15:00,
2013-04-18 09:20:00,68.9,64.7,29.74,ESE,112,0.7,1.6,83,0.00,,,0.00,fowsr,2013-04-18 13:20:00,
2013-04-18 09:25:00,69.1,64.9,29.74,SW,225,1.6,3.1,83,0.00,,,0.00,fowsr,2013-04-18 13:25:00,
2013-04-18 09:30:00,69.4,64.9,29.74,South,180,0.7,2.2,82,0.00,,,0.00,fowsr,2013-04-18 13:30:00,
2013-04-18 09:35:00,69.6,65.1,29.74,SE,135,0.0,0.0,82,0.00,,,0.00,fowsr,2013-04-18 13:35:00,
2013-04-18 09:40:00,70.0,65.2,29.74,SE,135,0.7,1.6,81,0.00,,,0.00,fowsr,2013-04-18 13:40:00,
2013-04-18 09:45:00,70.5,65.4,29.74,NE,45,1.6,2.2,80,0.00,,,0.00,fowsr,2013-04-18 13:45:00,
2013-04-18 09:50:00,71.1,65.7,29.74,SE,135,0.7,2.2,79,0.00,,,0.00,fowsr,2013-04-18 13:50:00,
2013-04-18 09:55:00,71.6,65.9,29.74,East,90,2.2,3.1,78,0.00,,,0.00,fowsr,2013-04-18 13:55:00,
2013-04-18 10:00:00,72.1,65.9,29.75,NW,315,0.0,0.7,76,0.00,,,0.00,fowsr,2013-04-18 14:00:00,
2013-04-18 10:05:00,72.3,65.7,29.75,SE,135,0.7,2.2,75,0.00,,,0.00,fowsr,2013-04-18 14:05:00,
2013-04-18 10:10:00,72.3,64.8,29.75,SE,135,0.0,0.0,72,0.00,,,0.00,fowsr,2013-04-18 14:10:00,
2013-04-18 10:15:00,72.7,65.2,29.74,SE,135,0.7,3.8,72,0.00,,,0.00,fowsr,2013-04-18 14:15:00,
2013-04-18 10:20:00,73.0,65.2,29.75,NE,45,0.7,1.6,71,0.00,,,0.00,fowsr,2013-04-18 14:20:00,
2013-04-18 10:25:00,73.2,65.0,29.75,East,90,0.7,1.6,70,0.00,,,0.00,fowsr,2013-04-18 14:25:00,
2013-04-18 10:30:00,73.0,64.2,29.75,SSE,157,0.7,1.6,68,0.00,,,0.00,fowsr,2013-04-18 14:30:00,
2013-04-18 10:35:00,72.9,64.1,29.75,West,270,1.6,3.1,68,0.00,,,0.00,fowsr,2013-04-18 14:35:00,
2013-04-18 10:40:00,72.9,64.1,29.75,NW,315,2.2,4.5,68,0.00,,,0.00,fowsr,2013-04-18 14:40:00,
2013-04-18 10:45:00,72.9,64.1,29.74,SE,135,1.6,3.8,68,0.00,,,0.00,fowsr,2013-04-18 14:45:00,
2013-04-18 10:50:00,73.0,64.2,29.74,SE,135,0.0,0.7,68,0.00,,,0.00,fowsr,2013-04-18 14:50:00,
2013-04-18 10:55:00,73.6,64.7,29.74,SW,225,0.0,1.6,68,0.00,,,0.00,fowsr,2013-04-18 14:55:00,
2013-04-18 11:00:00,73.9,64.7,29.73,East,90,0.7,2.2,67,0.00,,,0.00,fowsr,2013-04-18 15:00:00,
2013-04-18 11:05:00,74.5,65.3,29.73,East,90,1.6,3.1,67,0.00,,,0.00,fowsr,2013-04-18 15:05:00,
2013-04-18 11:10:00,74.7,64.4,29.73,SE,135,1.6,3.8,64,0.00,,,0.00,fowsr,2013-04-18 15:10:00,
2013-04-18 11:15:00,74.7,64.1,29.73,SE,135,3.1,6.0,63,0.00,,,0.00,fowsr,2013-04-18 15:15:00,
2013-04-18 11:25:00,74.8,64.2,29.73,NE,45,2.2,3.1,63,0.00,,,0.00,fowsr,2013-04-18 15:25:00,
2013-04-18 11:30:00,74.8,64.2,29.73,South,180,1.6,3.8,63,0.00,,,0.00,fowsr,2013-04-18 15:30:00,
2013-04-18 11:35:00,74.7,64.1,29.73,South,180,1.6,4.5,63,0.00,,,0.00,fowsr,2013-04-18 15:35:00,
2013-04-18 11:40:00,74.8,63.9,29.73,SE,135,0.7,2.2,62,0.00,,,0.00,fowsr,2013-04-18 15:40:00,
2013-04-18 11:45:00,74.8,64.2,29.73,South,180,1.6,3.8,63,0.00,,,0.00,fowsr,2013-04-18 15:45:00,
2013-04-18 11:50:00,74.8,64.2,29.72,SE,135,0.0,1.6,63,0.00,,,0.00,fowsr,2013-04-18 15:50:00,
2013-04-18 11:55:00,74.8,64.2,29.73,East,90,0.7,1.6,63,0.00,,,0.00,fowsr,2013-04-18 15:55:00,
2013-04-18 12:00:00,75.6,64.5,29.73,East,90,1.6,3.8,62,0.00,,,0.00,fowsr,2013-04-18 16:00:00,
2013-04-18 12:05:00,75.6,64.5,29.72,SW,225,2.2,3.8,62,0.00,,,0.00,fowsr,2013-04-18 16:05:00,
2013-04-18 12:10:00,75.7,64.7,29.72,North,0,0.0,0.7,62,0.00,,,0.00,fowsr,2013-04-18 16:10:00,
2013-04-18 12:15:00,75.9,64.9,29.72,SW,225,1.6,3.8,62,0.00,,,0.00,fowsr,2013-04-18 16:15:00,
2013-04-18 12:20:00,75.9,64.5,29.73,SE,135,0.7,3.1,61,0.00,,,0.00,fowsr,2013-04-18 16:20:00,
2013-04-18 12:25:00,75.9,63.8,29.72,SE,135,1.6,3.8,59,0.00,,,0.00,fowsr,2013-04-18 16:25:00,
2013-04-18 12:30:00,75.9,63.0,29.72,ENE,67,2.2,3.8,57,0.00,,,0.00,fowsr,2013-04-18 16:30:00,
2013-04-18 12:35:00,75.9,61.4,29.72,South,180,2.2,3.8,53,0.00,,,0.00,fowsr,2013-04-18 16:35:00,
2013-04-18 12:40:00,75.7,61.7,29.72,NW,315,0.7,1.6,54,0.00,,,0.00,fowsr,2013-04-18 16:40:00,
2013-04-18 12:45:00,75.7,61.7,29.71,SSE,157,0.7,2.2,54,0.00,,,0.00,fowsr,2013-04-18 16:45:00,
2013-04-18 12:50:00,76.3,62.6,29.71,South,180,0.7,2.2,55,0.00,,,0.00,fowsr,2013-04-18 16:50:00,
2013-04-18 12:55:00,76.8,63.0,29.71,South,180,0.0,0.7,55,0.00,,,0.00,fowsr,2013-04-18 16:55:00,
2013-04-18 13:00:00,77.4,63.5,29.70,West,270,1.6,2.2,55,0.00,,,0.00,fowsr,2013-04-18 17:00:00,
2013-04-18 13:05:00,77.9,63.6,29.70,East,90,0.0,1.6,54,0.00,,,0.00,fowsr,2013-04-18 17:05:00,
2013-04-18 13:10:00,78.4,63.7,29.70,North,0,0.7,3.1,53,0.00,,,0.00,fowsr,2013-04-18 17:10:00,
2013-04-18 13:15:00,78.6,63.4,29.69,East,90,1.6,3.8,52,0.00,,,0.00,fowsr,2013-04-18 17:15:00,
2013-04-18 13:20:00,78.6,63.4,29.69,South,180,1.6,3.8,52,0.00,,,0.00,fowsr,2013-04-18 17:20:00,
2013-04-18 13:25:00,78.6,63.0,29.69,ENE,67,1.6,3.1,51,0.00,,,0.00,fowsr,2013-04-18 17:25:00,
2013-04-18 13:30:00,78.6,62.6,29.69,East,90,0.7,3.1,50,0.00,,,0.00,fowsr,2013-04-18 17:30:00,
2013-04-18 13:35:00,78.3,62.3,29.69,SW,225,2.2,3.8,50,0.00,,,0.00,fowsr,2013-04-18 17:35:00,
2013-04-18 13:40:00,78.1,62.1,29.69,SE,135,0.7,3.1,50,0.00,,,0.00,fowsr,2013-04-18 17:40:00,
2013-04-18 13:45:00,78.6,63.4,29.68,SE,135,2.2,6.9,52,0.00,,,0.00,fowsr,2013-04-18 17:45:00,
2013-04-18 13:50:00,78.6,62.6,29.68,SE,135,2.2,6.0,50,0.00,,,0.00,fowsr,2013-04-18 17:50:00,
2013-04-18 13:55:00,78.8,62.3,29.68,SE,135,1.6,3.1,49,0.00,,,0.00,fowsr,2013-04-18 17:55:00,
2013-04-18 14:05:00,79.7,63.1,29.68,North,0,2.2,3.1,49,0.00,,,0.00,fowsr,2013-04-18 18:05:00,
2013-04-18 14:10:00,79.7,63.1,29.68,SE,135,3.1,6.9,49,0.00,,,0.00,fowsr,2013-04-18 18:10:00,
2013-04-18 14:15:00,79.9,63.3,29.67,NNE,22,1.6,3.1,49,0.00,,,0.00,fowsr,2013-04-18 18:15:00,
2013-04-18 14:20:00,79.9,63.3,29.67,SE,135,0.7,2.2,49,0.00,,,0.00,fowsr,2013-04-18 18:20:00,
2013-04-18 14:25:00,80.1,63.4,29.67,SE,135,1.6,3.8,49,0.00,,,0.00,fowsr,2013-04-18 18:25:00,
2013-04-18 14:30:00,80.1,63.4,29.67,SE,135,1.6,3.8,49,0.00,,,0.00,fowsr,2013-04-18 18:30:00,
2013-04-18 14:35:00,79.9,63.3,29.67,West,270,2.2,3.8,49,0.00,,,0.00,fowsr,2013-04-18 18:35:00,
2013-04-18 14:40:00,79.7,63.1,29.67,NE,45,0.7,1.6,49,0.00,,,0.00,fowsr,2013-04-18 18:40:00,
2013-04-18 14:45:00,79.9,63.3,29.67,South,180,1.6,2.2,49,0.00,,,0.00,fowsr,2013-04-18 18:45:00,
2013-04-18 14:50:00,80.6,63.5,29.66,SE,135,3.1,9.2,48,0.00,,,0.00,fowsr,2013-04-18 18:50:00,
2013-04-18 14:55:00,80.6,63.5,29.66,East,90,0.0,1.6,48,0.00,,,0.00,fowsr,2013-04-18 18:55:00,
2013-04-18 15:00:00,80.8,63.6,29.65,SE,135,2.2,6.0,48,0.00,,,0.00,fowsr,2013-04-18 19:00:00,
2013-04-18 15:05:00,80.6,63.5,29.65,South,180,2.2,4.5,48,0.00,,,0.00,fowsr,2013-04-18 19:05:00,
2013-04-18 15:10:00,80.2,63.6,29.65,SE,135,2.2,3.8,49,0.00,,,0.00,fowsr,2013-04-18 19:10:00,
2013-04-18 15:15:00,80.2,63.6,29.65,NE,45,1.6,3.8,49,0.00,,,0.00,fowsr,2013-04-18 19:15:00,
2013-04-18 15:20:00,80.4,63.8,29.65,NE,45,1.6,3.8,49,0.00,,,0.00,fowsr,2013-04-18 19:20:00,
2013-04-18 15:25:00,80.6,63.5,29.65,West,270,2.2,4.5,48,0.00,,,0.00,fowsr,2013-04-18 19:25:00,
2013-04-18 15:30:00,81.1,63.9,29.65,West,270,0.0,0.7,48,0.00,,,0.00,fowsr,2013-04-18 19:30:00,
2013-04-18 15:35:00,81.3,64.1,29.65,South,180,2.2,3.1,48,0.00,,,0.00,fowsr,2013-04-18 19:35:00,
2013-04-18 15:40:00,81.3,64.1,29.65,South,180,2.2,3.1,48,0.00,,,0.00,fowsr,2013-04-18 19:40:00,
2013-04-18 15:45:00,80.6,63.5,29.64,South,180,3.8,6.0,48,0.00,,,0.00,fowsr,2013-04-18 19:45:00,
2013-04-18 15:50:00,81.1,63.9,29.64,East,90,0.7,2.2,48,0.00,,,0.00,fowsr,2013-04-18 19:50:00,
2013-04-18 15:55:00,81.3,63.6,29.64,West,270,0.0,0.7,47,0.00,,,0.00,fowsr,2013-04-18 19:55:00,
2013-04-18 16:00:00,81.0,63.8,29.64,SE,135,0.7,3.8,48,0.00,,,0.00,fowsr,2013-04-18 20:00:00,
2013-04-18 16:05:00,81.0,63.8,29.63,SE,135,0.7,3.8,48,0.00,,,0.00,fowsr,2013-04-18 20:05:00,
2013-04-18 16:10:00,81.7,64.4,29.63,NW,315,0.7,1.6,48,0.00,,,0.00,fowsr,2013-04-18 20:10:00,
2013-04-18 16:15:00,81.5,64.3,29.63,SE,135,2.2,3.1,48,0.00,,,0.00,fowsr,2013-04-18 20:15:00,
2013-04-18 16:20:00,80.8,63.2,29.63,East,90,0.7,2.2,47,0.00,,,0.00,fowsr,2013-04-18 20:20:00,
2013-04-18 16:25:00,80.6,63.5,29.62,SE,135,0.7,3.1,48,0.00,,,0.00,fowsr,2013-04-18 20:25:00,
2013-04-18 16:30:00,80.4,63.8,29.62,South,180,2.2,3.1,49,0.00,,,0.00,fowsr,2013-04-18 20:30:00,
2013-04-18 16:35:00,79.9,63.7,29.62,South,180,0.7,1.6,50,0.00,,,0.00,fowsr,2013-04-18 20:35:00,
2013-04-18 16:40:00,79.7,63.6,29.62,NW,315,0.0,1.6,50,0.00,,,0.00,fowsr,2013-04-18 20:40:00,
2013-04-18 16:45:00,79.7,63.6,29.62,North,0,1.6,3.1,50,0.00,,,0.00,fowsr,2013-04-18 20:45:00,
2013-04-18 16:50:00,79.5,63.4,29.62,SW,225,0.7,3.1,50,0.00,,,0.00,fowsr,2013-04-18 20:50:00,
2013-04-18 16:55:00,79.9,63.7,29.61,East,90,3.1,5.4,50,0.00,,,0.00,fowsr,2013-04-18 20:55:00,
2013-04-18 17:00:00,79.9,63.7,29.60,East,90,1.6,3.8,50,0.00,,,0.00,fowsr,2013-04-18 21:00:00,
2013-04-18 17:05:00,79.9,63.3,29.56,SE,135,0.7,3.1,49,0.00,,,0.00,fowsr,2013-04-18 21:05:00,
2013-04-18 17:10:00,79.9,63.3,29.60,NW,315,0.7,3.1,49,0.00,,,0.00,fowsr,2013-04-18 21:10:00,
2013-04-18 17:15:00,79.9,63.7,29.60,ENE,67,0.0,1.6,50,0.00,,,0.00,fowsr,2013-04-18 21:15:00,
2013-04-18 17:20:00,79.9,63.3,29.60,East,90,1.6,3.1,49,0.00,,,0.00,fowsr,2013-04-18 21:20:00,
2013-04-18 17:25:00,80.2,64.0,29.60,North,0,3.8,7.6,50,0.00,,,0.00,fowsr,2013-04-18 21:25:00,
2013-04-18 17:30:00,80.2,64.0,29.60,SE,135,1.6,3.1,50,0.00,,,0.00,fowsr,2013-04-18 21:30:00,
2013-04-18 17:35:00,79.9,63.7,29.61,North,0,0.7,2.2,50,0.00,,,0.00,fowsr,2013-04-18 21:35:00,
2013-04-18 17:40:00,79.7,64.0,29.60,East,90,2.2,3.8,51,0.00,,,0.00,fowsr,2013-04-18 21:40:00,
2013-04-18 17:45:00,79.5,63.8,29.60,NW,315,0.7,2.2,51,0.00,,,0.00,fowsr,2013-04-18 21:45:00,
2013-04-18 17:50:00,79.5,63.8,29.60,SE,135,0.7,3.1,51,0.00,,,0.00,fowsr,2013-04-18 21:50:00,
2013-04-18 17:55:00,79.9,64.6,29.59,East,90,0.0,0.7,52,0.00,,,0.00,fowsr,2013-04-18 21:55:00,
2013-04-18 18:00:00,80.2,64.9,29.60,SE,135,1.6,2.2,52,0.00,,,0.00,fowsr,2013-04-18 22:00:00,
2013-04-18 18:05:00,80.4,65.1,29.59,SE,135,0.7,2.2,52,0.00,,,0.00,fowsr,2013-04-18 22:05:00,
2013-04-18 18:10:00,80.6,64.4,29.59,South,180,3.1,3.8,50,0.00,,,0.00,fowsr,2013-04-18 22:10:00,
2013-04-18 18:15:00,80.4,64.6,29.59,SE,135,2.2,4.5,51,0.00,,,0.00,fowsr,2013-04-18 22:15:00,
2013-04-18 18:20:00,80.1,64.3,29.59,East,90,1.6,3.1,51,0.00,,,0.00,fowsr,2013-04-18 22:20:00,
2013-04-18 18:25:00,79.3,64.1,29.59,North,0,0.7,2.2,52,0.00,,,0.00,fowsr,2013-04-18 22:25:00,
2013-04-18 18:30:00,78.8,64.0,29.59,East,90,0.7,3.1,53,0.00,,,0.00,fowsr,2013-04-18 22:30:00,
2013-04-18 18:35:00,78.4,64.1,29.59,East,90,2.2,5.4,54,0.00,,,0.00,fowsr,2013-04-18 22:35:00,
2013-04-18 18:40:00,78.3,64.0,29.59,SE,135,0.7,1.6,54,0.00,,,0.00,fowsr,2013-04-18 22:40:00,
2013-04-18 18:45:00,78.3,64.4,29.59,NW,315,2.2,4.5,55,0.00,,,0.00,fowsr,2013-04-18 22:45:00,
2013-04-18 18:50:00,78.1,64.2,29.59,SE,135,0.0,0.7,55,0.00,,,0.00,fowsr,2013-04-18 22:50:00,
2013-04-18 18:55:00,77.9,64.0,29.58,SE,135,0.7,2.2,55,0.00,,,0.00,fowsr,2013-04-18 22:55:00,
2013-04-18 19:00:00,77.7,63.9,29.58,NE,45,2.2,5.4,55,0.00,,,0.00,fowsr,2013-04-18 23:00:00,
2013-04-18 19:05:00,77.5,63.7,29.58,SE,135,0.0,1.6,55,0.00,,,0.00,fowsr,2013-04-18 23:05:00,
2013-04-18 19:10:00,77.4,63.5,29.58,South,180,2.2,4.5,55,0.00,,,0.00,fowsr,2013-04-18 23:10:00,
2013-04-18 19:15:00,77.2,63.4,29.58,South,180,1.6,3.1,55,0.00,,,0.00,fowsr,2013-04-18 23:15:00,
2013-04-18 19:20:00,77.0,63.2,29.58,SE,135,0.0,1.6,55,0.00,,,0.00,fowsr,2013-04-18 23:20:00,
2013-04-18 19:25:00,76.8,63.4,29.59,SE,135,0.0,0.7,56,0.00,,,0.00,fowsr,2013-04-18 23:25:00,
2013-04-18 19:30:00,76.5,63.5,29.58,SSE,157,1.6,3.1,57,0.00,,,0.00,fowsr,2013-04-18 23:30:00,
2013-04-18 19:35:00,76.1,63.2,29.58,SSE,157,0.7,2.2,57,0.00,,,0.00,fowsr,2013-04-18 23:35:00,
2013-04-18 19:40:00,75.9,63.0,29.59,East,90,0.7,2.2,57,0.00,,,0.00,fowsr,2013-04-18 23:40:00,
2013-04-18 19:45:00,75.7,63.2,29.59,East,90,0.0,0.7,58,0.00,,,0.00,fowsr,2013-04-18 23:45:00,
2013-04-18 19:50:00,75.4,62.9,29.59,SE,135,0.7,1.6,58,0.00,,,0.00,fowsr,2013-04-18 23:50:00,
2013-04-18 19:55:00,75.2,62.3,29.59,SE,135,0.7,2.2,57,0.00,,,0.00,fowsr,2013-04-18 23:55:00,
2013-04-18 20:00:00,75.0,62.6,29.59,South,180,1.6,3.1,58,0.00,,,0.00,fowsr,2013-04-19 00:00:00,
2013-04-18 20:05:00,74.8,62.4,29.59,East,90,0.7,2.2,58,0.00,,,0.00,fowsr,2013-04-19 00:05:00,
2013-04-18 20:10:00,74.5,62.1,29.59,NW,315,0.0,0.0,58,0.00,,,0.00,fowsr,2013-04-19 00:10:00,
2013-04-18 20:15:00,74.3,61.9,29.59,East,90,0.0,1.6,58,0.00,,,0.00,fowsr,2013-04-19 00:15:00,
2013-04-18 20:20:00,74.1,62.1,29.59,SE,135,0.0,0.0,59,0.00,,,0.00,fowsr,2013-04-19 00:20:00,
2013-04-18 20:25:00,73.8,61.8,29.59,NW,315,0.0,1.6,59,0.00,,,0.00,fowsr,2013-04-19 00:25:00,
2013-04-18 20:30:00,73.4,61.8,29.59,NE,45,0.7,1.6,60,0.00,,,0.00,fowsr,2013-04-19 00:30:00,
2013-04-18 20:35:00,73.2,62.0,29.60,East,90,1.6,2.2,61,0.00,,,0.00,fowsr,2013-04-19 00:35:00,
2013-04-18 20:40:00,73.0,62.2,29.60,South,180,0.7,1.6,62,0.00,,,0.00,fowsr,2013-04-19 00:40:00,
2013-04-18 20:45:00,73.0,62.5,29.60,South,180,2.2,4.5,63,0.00,,,0.00,fowsr,2013-04-19 00:45:00,
2013-04-18 20:50:00,72.7,62.5,29.61,West,270,0.0,1.6,64,0.00,,,0.00,fowsr,2013-04-19 00:50:00,
2013-04-18 20:55:00,72.7,62.9,29.60,SE,135,1.6,2.2,65,0.00,,,0.00,fowsr,2013-04-19 00:55:00,
2013-04-18 21:05:00,72.3,62.9,29.60,NE,45,0.0,0.7,66,0.00,,,0.00,fowsr,2013-04-19 01:05:00,
2013-04-18 21:10:00,72.1,63.0,29.60,NNW,337,1.6,3.1,67,0.00,,,0.00,fowsr,2013-04-19 01:10:00,
2013-04-18 21:15:00,72.0,63.2,29.59,SSE,157,1.6,3.8,68,0.00,,,0.00,fowsr,2013-04-19 01:15:00,
2013-04-18 21:20:00,71.8,63.0,29.60,North,0,2.2,3.8,68,0.00,,,0.00,fowsr,2013-04-19 01:20:00,
2013-04-18 21:25:00,71.6,62.9,29.59,South,180,0.0,0.7,68,0.00,,,0.00,fowsr,2013-04-19 01:25:00,
2013-04-18 21:30:00,71.4,63.3,29.60,South,180,1.6,3.8,70,0.00,,,0.00,fowsr,2013-04-19 01:30:00,
2013-04-18 21:35:00,71.2,63.2,29.60,East,90,1.6,3.1,70,0.00,,,0.00,fowsr,2013-04-19 01:35:00,
2013-04-18 21:40:00,71.1,63.0,29.60,NE,45,0.7,2.2,70,0.00,,,0.00,fowsr,2013-04-19 01:40:00,
2013-04-18 21:45:00,70.9,63.1,29.60,NW,315,1.6,3.8,71,0.00,,,0.00,fowsr,2013-04-19 01:45:00,
2013-04-18 21:50:00,70.7,63.0,29.60,East,90,1.6,3.1,71,0.00,,,0.00,fowsr,2013-04-19 01:50:00,
2013-04-18 21:55:00,70.5,62.8,29.60,East,90,3.1,6.0,71,0.00,,,0.00,fowsr,2013-04-19 01:55:00,
2013-04-18 22:00:00,70.5,62.8,29.61,NE,45,1.6,5.4,71,0.00,,,0.00,fowsr,2013-04-19 02:00:00,
2013-04-18 22:05:00,70.3,62.9,29.61,SE,135,0.7,3.1,72,0.00,,,0.00,fowsr,2013-04-19 02:05:00,
2013-04-18 22:10:00,70.2,62.8,29.61,East,90,2.2,4.5,72,0.00,,,0.00,fowsr,2013-04-19 02:10:00,
2013-04-18 22:15:00,70.0,62.9,29.61,SW,225,0.0,1.6,73,0.00,,,0.00,fowsr,2013-04-19 02:15:00,
2013-04-18 22:20:00,69.8,62.7,29.61,NE,45,1.6,3.8,73,0.00,,,0.00,fowsr,2013-04-19 02:20:00,
2013-04-18 22:25:00,69.8,62.7,29.60,SE,135,1.6,2.2,73,0.00,,,0.00,fowsr,2013-04-19 02:25:00,
2013-04-18 22:30:00,69.6,63.1,29.60,SE,135,0.0,1.6,75,0.00,,,0.00,fowsr,2013-04-19 02:30:00,
2013-04-18 22:35:00,69.6,63.1,29.60,SE,135,0.0,1.6,75,0.00,,,0.00,fowsr,2013-04-19 02:35:00,
2013-04-18 22:40:00,69.1,62.9,29.61,SE,135,0.0,0.7,76,0.00,,,0.00,fowsr,2013-04-19 02:40:00,
2013-04-18 22:45:00,69.1,62.9,29.61,SE,135,0.7,3.1,76,0.00,,,0.00,fowsr,2013-04-19 02:45:00,
2013-04-18 22:50:00,68.9,63.0,29.61,SE,135,0.7,2.2,77,0.00,,,0.00,fowsr,2013-04-19 02:50:00,
2013-04-18 22:55:00,68.9,63.3,29.60,SE,135,1.6,3.8,78,0.00,,,0.00,fowsr,2013-04-19 02:55:00,
2013-04-18 23:00:00,68.7,63.1,29.60,SE,135,0.7,1.6,78,0.00,,,0.00,fowsr,2013-04-19 03:00:00,
2013-04-18 23:05:00,68.5,63.2,29.60,SE,135,1.6,2.2,79,0.00,,,0.00,fowsr,2013-04-19 03:05:00,
2013-04-18 23:10:00,68.4,63.1,29.60,East,90,0.0,0.7,79,0.00,,,0.00,fowsr,2013-04-19 03:10:00,
2013-04-18 23:15:00,68.4,63.4,29.60,SE,135,0.0,1.6,80,0.00,,,0.00,fowsr,2013-04-19 03:15:00,
2013-04-18 23:20:00,68.2,63.2,29.59,NW,315,0.0,0.7,80,0.00,,,0.00,fowsr,2013-04-19 03:20:00,
2013-04-18 23:25:00,68.2,63.2,29.59,NE,45,0.0,1.6,80,0.00,,,0.00,fowsr,2013-04-19 03:25:00,
2013-04-18 23:30:00,68.0,63.0,29.59,West,270,1.6,3.1,80,0.00,,,0.00,fowsr,2013-04-19 03:30:00,
2013-04-18 23:35:00,68.0,63.3,29.59,East,90,0.7,2.2,81,0.00,,,0.00,fowsr,2013-04-19 03:35:00,
2013-04-18 23:40:00,67.8,63.4,29.59,NE,45,0.0,0.7,82,0.00,,,0.00,fowsr,2013-04-19 03:40:00,
2013-04-18 23:45:00,67.6,63.2,29.59,SE,135,0.7,3.1,82,0.00,,,0.00,fowsr,2013-04-19 03:45:00,
2013-04-18 23:50:00,67.6,63.2,29.60,South,180,0.0,1.6,82,0.00,,,0.00,fowsr,2013-04-19 03:50:00,
2013-04-18 23:55:00,67.6,63.2,29.60,NE,45,0.7,1.6,82,0.00,,,0.00,fowsr,2013-04-19 03:55:00,